Regional Weather Roundup
Issued by NWS Green Bay, WI

Home | Current Version | Previous Version | Graphics & Text | Print | Product List | Glossary Off
Versions: 1 2 3 4 5 6 7 8 9 10 11 12 13 14 15 16 17 18 19 20 21 22 23 24 25 26 27 28 29 30 31 32 33 34 35 36 37 38 39 40 41 42 43 44 45 46 47 48 49 50

000
ASUS43 KGRB 260659
RWRGRB

NORTH-CENTRAL AND NORTHEAST WISCONSIN REGIONAL WEATHER ROUNDUP
NATIONAL WEATHER SERVICE GREEN BAY WI
100 AM CST WED NOV 26 2014

WIZ005-009-010>012-018-019-260800-
NORTH CENTRAL WISCONSIN

CITY           SKY/WX    TMP DP  RH WIND       PRES   REMARKS
IRONWOOD       CLOUDY     7   0  72 CALM      30.05S
MANITOWISH WTR NOT AVBL
ARBOR VITAE    NOT AVBL
EAGLE RIVER    NOT AVBL
LAND O LAKES   NOT AVBL
RHINELANDER    CLOUDY     8   6  92 E5        30.07F WCI   0
PHILLIPS       NOT AVBL
ANTIGO         NOT AVBL
TOMAHAWK       NOT AVBL
MERRILL        NOT AVBL
$$

WIZ013-073-260800-
NORTHEAST WISCONSIN

CITY           SKY/WX    TMP DP  RH WIND       PRES   REMARKS
IRON MOUNTAIN  CLEAR     -1  -6  79 CALM      30.11F
MARINETTE      CLOUDY    18  12  79 W3        30.18R
$$

WIZ017-030-035>037-045-260800-
CENTRAL WISCONSIN

CITY           SKY/WX    TMP DP  RH WIND       PRES   REMARKS
MEDFORD        NOT AVBL
WAUSAU         CLOUDY    13  11  92 E5        30.10S WCI   5
MOSINEE        NOT AVBL
MARSHFIELD     CLOUDY    21  15  78 E5        30.08F
WISC RAPIDS    CLOUDY    18  13  80 SE6       30.12F WCI  10
STEVENS POINT  NOT AVBL
WAUPACA        NOT AVBL
SHAWANO        NOT AVBL
CLINTONVILLE   NOT AVBL
$$

WIZ038-039-048-051-260800-
FOX VALLEY

CITY           SKY/WX    TMP DP  RH WIND       PRES   REMARKS
NWS GREEN BAY  CLEAR     11   8  88 CALM      30.18S
APPLETON       NOT AVBL
OSHKOSH        CLEAR     12  10  92 S3        30.16S FOG
FOND DU LAC    CLEAR     12   8  84 S3        30.16S
$$

WIZ022-050-052-260800-
EAST CENTRAL WISCONSIN

CITY           SKY/WX    TMP DP  RH WIND       PRES   REMARKS
STURGEON BAY   CLOUDY    21  14  73 S3        30.18S
MANITOWOC      NOT AVBL
SHEBOYGAN      CLOUDY    20  15  81 CALM      30.18S
$$

LMZ563-521-522-541>543-260800-
LAKESHORE

STATION/POSITION TIME  TEMP    WIND        PRES    VSBY  WAVE
                       AIR SEA DIR/SP/G                  HT/PER
                 (UTC) (F)     (DEG/KT/KT) (MB)    (MI)  (FT/S)
SHEBOYGAN LKSHOR 0600   21 36  230/  6/  8 1023.4R
KEWAUNEE LKSHORE 0600   21      CALM  /  1 1021.4R
NORTHPORT PIER   0600   24     210/  2/  7 1021.7R
N MID LAKE BUOY  0600   29 42  250/  6/ 10 1021.9R         1
CHAMBERS ISLAND  0600   22     230/  6/  9 1022.0R
MENOMINEE LKSHOR 0600   20     230/  6/  8 1022.7R
$$


USA.gov is the U.S. government's official web portal to all federal, state and local government web resources and services.